DNO455 LGAV-LGMK

Flight info

Callsign DNO455
Flight time 0h 21m
Altitude 17000
Route KEA L995 VARIX
Aircraft A320/M-SDE3FGHIRWY/LB1

Departure

Time 2026-04-23 08:29
Airport Athens Eleftherios Venizelos International Airport (LGAV)

Arrival

Time 2026-04-23 08:51
Airport Mykonos Island National Airport (LGMK)
Time Latitude Longitude Altitude Speed Heading
2026-04-23 08:10 37.94169 23.95308 317 ft 0 kts 217°
2026-04-23 08:20 37.94173 23.95312 317 ft 2 kts 217°
2026-04-23 08:20 37.94185 23.95323 317 ft 2 kts 217°
2026-04-23 08:20 37.94197 23.95335 317 ft 2 kts 217°
2026-04-23 08:21 37.94205 23.95342 317 ft 0 kts 217°
2026-04-23 08:21 37.94217 23.95350 317 ft 2 kts 176°
2026-04-23 08:21 37.94231 23.95343 317 ft 1 kts 135°
2026-04-23 08:21 37.94235 23.95337 317 ft 1 kts 122°
2026-04-23 08:22 37.94237 23.95333 317 ft 0 kts 127°
2026-04-23 08:24 37.94236 23.95334 317 ft 0 kts 126°
2026-04-23 08:24 37.94228 23.95348 317 ft 5 kts 127°
2026-04-23 08:24 37.94181 23.95428 317 ft 14 kts 127°
2026-04-23 08:24 37.94147 23.95518 317 ft 11 kts 107°
2026-04-23 08:25 37.94102 23.95603 317 ft 12 kts 126°
2026-04-23 08:25 37.94031 23.95645 317 ft 13 kts 209°
2026-04-23 08:25 37.93953 23.95569 317 ft 14 kts 217°
2026-04-23 08:25 37.93869 23.95488 317 ft 15 kts 217°
2026-04-23 08:26 37.93779 23.95402 317 ft 16 kts 217°
2026-04-23 08:26 37.93683 23.95310 317 ft 17 kts 218°
2026-04-23 08:26 37.93583 23.95217 317 ft 18 kts 217°
2026-04-23 08:26 37.93481 23.95120 317 ft 18 kts 217°
2026-04-23 08:27 37.93375 23.95019 317 ft 17 kts 217°
2026-04-23 08:27 37.93292 23.94939 317 ft 13 kts 217°
2026-04-23 08:27 37.93219 23.94869 317 ft 13 kts 217°
2026-04-23 08:27 37.93143 23.94859 317 ft 10 kts 135°
2026-04-23 08:28 37.93142 23.94945 317 ft 11 kts 63°
2026-04-23 08:28 37.93178 23.95038 317 ft 12 kts 65°
2026-04-23 08:28 37.93207 23.95138 317 ft 13 kts 43°
2026-04-23 08:28 37.93421 23.95341 317 ft 72 kts 37°
2026-04-23 08:29 37.94010 23.95897 318 ft 136 kts 39°
2026-04-23 08:29 37.94823 23.96690 781 ft 149 kts 36°
2026-04-23 08:29 37.95591 23.97479 1587 ft 143 kts 37°
2026-04-23 08:29 37.96340 23.98229 2392 ft 137 kts 36°
2026-04-23 08:30 37.97064 23.98935 3157 ft 133 kts 34°
2026-04-23 08:30 37.97799 23.99615 3781 ft 138 kts 32°
2026-04-23 08:30 37.98630 24.00372 4245 ft 156 kts 37°
2026-04-23 08:30 37.99255 24.01589 4716 ft 183 kts 71°
2026-04-23 08:31 37.99072 24.03295 5126 ft 220 kts 115°
2026-04-23 08:31 37.98108 24.04934 5686 ft 242 kts 126°
2026-04-23 08:31 37.97004 24.06629 6283 ft 261 kts 126°
2026-04-23 08:31 37.95816 24.08473 6876 ft 279 kts 127°
2026-04-23 08:32 37.94587 24.10433 7582 ft 292 kts 126°
2026-04-23 08:32 37.93372 24.12510 8443 ft 298 kts 126°
2026-04-23 08:32 37.92162 24.14625 9279 ft 303 kts 127°
2026-04-23 08:32 37.90918 24.16802 10068 ft 310 kts 127°
2026-04-23 08:33 37.89638 24.19027 10675 ft 322 kts 128°
2026-04-23 08:33 37.88282 24.21372 11086 ft 340 kts 128°
2026-04-23 08:33 37.86852 24.23841 11549 ft 354 kts 128°
2026-04-23 08:33 37.85399 24.26356 12303 ft 357 kts 128°
2026-04-23 08:34 37.83931 24.28899 13055 ft 361 kts 128°
2026-04-23 08:34 37.82445 24.31472 13722 ft 366 kts 128°
2026-04-23 08:34 37.80945 24.34071 14359 ft 371 kts 129°
2026-04-23 08:34 37.79416 24.36718 15030 ft 375 kts 129°
2026-04-23 08:35 37.77882 24.39369 15707 ft 378 kts 130°
2026-04-23 08:35 37.76328 24.42048 16359 ft 381 kts 130°
2026-04-23 08:35 37.74760 24.44745 16816 ft 383 kts 130°
2026-04-23 08:35 37.73182 24.47459 16995 ft 384 kts 130°
2026-04-23 08:36 37.71618 24.50141 16907 ft 378 kts 130°
2026-04-23 08:36 37.70064 24.52805 16479 ft 377 kts 130°
2026-04-23 08:36 37.68512 24.55460 16004 ft 376 kts 130°
2026-04-23 08:36 37.66968 24.58103 15550 ft 375 kts 130°
2026-04-23 08:37 37.65436 24.60728 15131 ft 373 kts 130°
2026-04-23 08:37 37.63885 24.63383 14714 ft 371 kts 129°
2026-04-23 08:37 37.62384 24.65959 14310 ft 368 kts 130°
2026-04-23 08:37 37.60858 24.68571 13885 ft 366 kts 130°
2026-04-23 08:38 37.59358 24.71134 13483 ft 363 kts 130°
2026-04-23 08:38 37.57873 24.73670 13074 ft 360 kts 130°
2026-04-23 08:38 37.56386 24.76206 12671 ft 357 kts 129°
2026-04-23 08:38 37.54927 24.78694 12294 ft 354 kts 129°
2026-04-23 08:39 37.53466 24.81182 11915 ft 351 kts 129°
2026-04-23 08:39 37.52031 24.83626 11532 ft 348 kts 129°
2026-04-23 08:39 37.50591 24.86075 11143 ft 345 kts 129°
2026-04-23 08:39 37.49191 24.88460 10929 ft 336 kts 129°
2026-04-23 08:40 37.47819 24.90798 10755 ft 327 kts 129°
2026-04-23 08:40 37.46482 24.93069 10582 ft 318 kts 129°
2026-04-23 08:40 37.44743 24.96019 10200 ft 313 kts 129°
2026-04-23 08:40 37.43889 24.97466 9974 ft 312 kts 129°
2026-04-23 08:41 37.42605 24.99638 9645 ft 310 kts 128°
2026-04-23 08:41 37.41313 25.01822 9307 ft 309 kts 128°
2026-04-23 08:41 37.40048 25.03963 8970 ft 307 kts 128°
2026-04-23 08:41 37.38778 25.06108 8645 ft 305 kts 128°
2026-04-23 08:42 37.37513 25.08251 8317 ft 304 kts 128°
2026-04-23 08:42 37.36267 25.10366 8000 ft 302 kts 127°
2026-04-23 08:42 37.35025 25.12468 7687 ft 299 kts 127°
2026-04-23 08:42 37.33783 25.14573 7364 ft 297 kts 127°
2026-04-23 08:43 37.32562 25.16636 6989 ft 294 kts 127°
2026-04-23 08:43 37.31356 25.18675 6533 ft 292 kts 126°
2026-04-23 08:43 37.30143 25.20722 6076 ft 289 kts 126°
2026-04-23 08:43 37.28965 25.22731 5631 ft 287 kts 124°
2026-04-23 08:44 37.27902 25.24858 5181 ft 283 kts 117°
2026-04-23 08:44 37.27017 25.27009 4716 ft 279 kts 114°
2026-04-23 08:44 37.26173 25.29157 4241 ft 272 kts 114°
2026-04-23 08:44 37.25404 25.31279 3966 ft 256 kts 103°
2026-04-23 08:45 37.25391 25.33376 3658 ft 236 kts 69°
2026-04-23 08:45 37.25973 25.35244 3436 ft 223 kts 65°
2026-04-23 08:45 37.26524 25.37006 3247 ft 217 kts 65°
2026-04-23 08:45 37.27052 25.38777 3122 ft 211 kts 66°
2026-04-23 08:46 37.27556 25.40463 2962 ft 202 kts 60°
2026-04-23 08:46 37.28459 25.41678 2761 ft 187 kts 18°
2026-04-23 08:46 37.29683 25.41651 2598 ft 180 kts 338°
2026-04-23 08:46 37.30754 25.40939 2592 ft 166 kts 334°
2026-04-23 08:47 37.31770 25.40294 2441 ft 159 kts 337°
2026-04-23 08:47 37.32753 25.39747 2292 ft 151 kts 339°
2026-04-23 08:47 37.33711 25.39261 2134 ft 142 kts 340°
2026-04-23 08:47 37.34596 25.38832 1949 ft 131 kts 339°
2026-04-23 08:48 37.35404 25.38376 1733 ft 126 kts 338°
2026-04-23 08:48 37.36211 25.37968 1640 ft 124 kts 341°
2026-04-23 08:48 37.37017 25.37603 1666 ft 119 kts 342°
2026-04-23 08:48 37.37780 25.37275 1509 ft 115 kts 343°
2026-04-23 08:49 37.38540 25.36955 1377 ft 115 kts 343°
2026-04-23 08:49 37.39299 25.36626 1165 ft 114 kts 343°
2026-04-23 08:49 37.40047 25.36319 980 ft 114 kts 345°
2026-04-23 08:49 37.40797 25.36009 805 ft 113 kts 342°
2026-04-23 08:50 37.41543 25.35682 702 ft 114 kts 342°
2026-04-23 08:50 37.42300 25.35363 520 ft 114 kts 343°
2026-04-23 08:50 37.43043 25.35033 419 ft 113 kts 340°
2026-04-23 08:50 37.43645 25.34769 415 ft 51 kts 341°
2026-04-23 08:51 37.43980 25.34620 402 ft 45 kts 340°
2026-04-23 08:51 37.44214 25.34511 390 ft 27 kts 329°
2026-04-23 08:51 37.44302 25.34489 388 ft 10 kts 102°
2026-04-23 08:51 37.44208 25.34527 390 ft 19 kts 163°
2026-04-23 08:52 37.44057 25.34586 397 ft 24 kts 161°
2026-04-23 08:52 37.43883 25.34663 408 ft 28 kts 159°
2026-04-23 08:52 37.43714 25.34729 414 ft 18 kts 185°
2026-04-23 08:52 37.43628 25.34679 414 ft 10 kts 202°
2026-04-23 08:53 37.43552 25.34693 415 ft 11 kts 159°
2026-04-23 08:53 37.43516 25.34692 416 ft 3 kts 240°
2026-04-23 08:53 37.43505 25.34655 416 ft 4 kts 250°
2026-04-23 08:53 37.43502 25.34644 416 ft 0 kts 250°